Location: Fort Lauderdale
(26.1220°N, 80.1440°W)
Time: 03:28:56
(UTC-04:00)

ISS - Visible Passes

Search period start: 19 October 2019 00:00
Search period end: 29 October 2019 00:00
Orbit: 411 x 421 km, 51.6° (Epoch: 19 October)

Date Brightness Start Highest point End Pass type
(mag) Time Alt. Az. Time Alt. Az. Time Alt. Az.
21 Oct -0.6 06:10:28 10° SSE 06:12:15 14° SE 06:14:02 10° E visible
22 Oct -3.8 06:56:49 10° SW 07:00:08 65° NW 07:03:29 10° NE visible
23 Oct -3.1 06:09:13 17° SSW 06:11:36 54° SE 06:14:54 10° NE visible
24 Oct -1.3 05:23:59 22° ESE 05:23:59 22° ESE 05:25:56 10° ENE visible
24 Oct -2.1 06:57:23 10° W 06:59:48 18° NW 07:02:13 10° N visible
25 Oct -2.9 06:11:26 33° NNW 06:11:26 33° NNW 06:14:13 10° NNE visible
26 Oct -0.7 05:25:39 11° NE 05:25:39 11° NE 05:25:52 10° NE visible
